Dewpoint
62 61 61 59 59 58 60 60 60 59 59 58 58 61 59 60 54 55 57 57 59 60 60 60 61 61 60 60 60 60 61 60 60
61 61 60 59 59 60 60 59 59 59 58 57 60 61 59 55 55 55 56 57 60 60 60 61 61 62 62 62 62 62 61 60 60
61 60 59 59 60 60 59 59 59 58 57 60 61 60 60 54 55 56 57 61 59 62 63 64 64 64 64 64 64 63 64 64 64
60 59 59 59 59 59 59 59 58 57 58 61 61 61 60 55 54 53 55 62 61 64 65 64 63 62 62 62 61 61 61 61 62
61 61 60 58 58 58 59 59 58 57 59 60 60 59 61 55 55 54 56 62 65 64 63 62 61 60 60 60 60 60 60 60 60
55 59 60 59 58 58 59 58 58 58 59 60 58 60 59 56 55 57 63 65 64 63 62 61 60 60 60 58 56 57 60 58 58
52 57 61 60 60 60 60 58 56 53 53 56 58 58 59 57 57 58 64 64 63 61 60 59 59 58 57 56 56 57 59 56 58
52 54 54 54 56 54 56 51 47 47 49 54 55 56 58 60 61 62 64 63 62 60 59 58 58 57 56 57 56 55 58 56 55
47 46 48 49 48 48 48 47 47 47 48 53 53 55 57 58 59 61 63 63 62 61 60 59 57 56 56 56 55 56 60 56 55
45 45 45 46 47 47 47 47 47 46 48 52 52 54 54 55 57 58 61 62 61 60 59 59 56 55 56 55 55 60 57 55 55
45 45 45 46 46 47 47 47 47 47 47 49 51 52 53 53 55 55 56 60 60 58 58 57 55 56 55 55 54 55 54 54 54
46 44 46 46 46 46 47 47 47 47 47 47 48 49 50 51 52 54 54 55 58 58 57 56 54 54 54 55 54 53 55 54 53
46 45 45 47 47 47 47 47 46 47 47 47 47 49 49 48 48 49 49 50 50 54 54 53 53 53 53 54 53 53 53 53 52
44 44 45 47 48 48 47 47 47 47 47 47 47 47 48 49 48 49 49 50 49 49 54 55 54 53 53 53 53 53 52 52 54
45 45 45 46 48 48 47 48 47 47 46 44 46 47 47 49 49 49 49 50 51 49 49 50 51 53 52 52 52 52 51 52 54
45 45 44 45 46 47 47 47 48 47 46 46 46 46 47 47 47 48 48 50 50 50 50 49 47 48 50 51 52 52 52 52 52
45 45 44 44 44 45 46 47 47 47 47 44 44 43 43 45 45 46 45 45 48 49 49 48 47 47 46 48 51 51 52 52 53
46 46 45 45 44 44 45 47 47 46 47 46 44 43 40 42 44 43 43 44 47 48 49 47 47 46 46 47 48 50 50 51 54
48 48 47 46 46 45 46 45 46 46 46 46 45 45 45 41 41 43 43 43 45 47 47 46 47 47 46 47 50 50 50 50 54
48 48 48 47 47 46 47 45 45 45 46 46 46 44 43 44 42 40 42 43 46 47 46 46 46 45 45 45 49 50 49 49 52
Lifted_Index
6 6 7 7 7 7 7 7 7 7 8 8 7 6 6 6 6 5 5 5 5 5 6 6 5 5 5 5 5 4 4 5 4
7 7 7 7 7 7 7 7 7 7 8 7 7 7 6 6 6 5 5 5 5 5 5 5 5 4 4 4 4 4 4 4 4
7 7 7 7 7 7 7 7 7 8 8 7 7 7 6 6 6 5 5 5 5 4 4 4 4 4 4 3 3 4 4 3 3
7 7 8 8 7 7 7 7 8 8 8 7 6 6 6 6 6 6 5 5 4 4 3 4 4 4 4 4 4 4 4 4 4
7 7 8 8 8 8 7 8 8 8 8 7 7 6 5 5 5 5 5 4 3 4 4 5 5 5 5 5 5 5 5 5 5
8 8 8 8 8 8 7 8 9 9 8 7 7 6 5 5 5 4 4 3 3 4 5 6 6 6 6 7 7 6 6 6 6
9 8 8 8 8 8 8 9 10 10 9 7 6 6 5 4 4 4 3 3 4 5 6 7 7 7 7 7 7 7 7 7 7
10 9 9 9 9 9 9 10 10 10 9 7 6 6 5 4 4 3 3 4 4 6 7 7 8 8 8 8 8 7 7 7 8
11 11 11 11 11 10 10 11 11 10 9 8 6 6 5 4 4 3 4 4 5 6 6 7 8 9 9 8 8 7 7 7 8
12 12 11 11 11 11 11 11 11 10 9 8 7 6 5 5 4 4 5 5 5 6 7 7 8 9 9 9 8 7 7 8 8
12 12 12 11 11 11 11 11 11 10 10 9 8 8 7 6 6 6 6 7 7 7 7 8 9 9 9 9 9 9 8 9 9
12 12 12 12 11 11 11 11 11 11 10 10 10 9 9 8 8 8 8 8 8 9 9 9 10 10 10 10 10 9 9 9 9
12 12 12 12 11 11 11 11 11 11 11 11 11 10 10 10 10 10 10 10 10 10 10 11 11 11 10 10 10 10 10 10 10
12 12 12 12 12 11 11 11 11 11 11 11 12 11 11 11 11 11 11 11 11 11 11 11 11 11 11 11 11 10 10 10 10
12 12 12 12 12 12 12 12 12 12 12 12 12 12 12 12 11 11 11 11 11 11 11 12 12 12 12 12 11 11 11 10 10
12 12 12 12 12 12 12 12 12 12 12 12 12 13 13 12 12 12 12 12 11 11 11 12 12 13 13 13 12 12 11 11 10
12 12 12 13 13 12 12 12 12 12 12 12 12 12 12 13 13 13 13 12 12 11 11 12 13 13 14 14 13 13 12 11 10
12 12 12 13 13 13 13 13 12 12 12 12 12 12 12 12 13 13 14 13 13 12 12 12 13 13 14 14 14 14 13 11 10
12 12 12 13 13 13 13 13 13 12 12 12 13 12 12 12 12 13 14 14 13 12 12 13 13 14 14 14 14 14 13 12 11
12 12 12 12 13 13 13 13 13 12 12 12 13 13 13 12 12 13 14 14 13 13 13 13 14 14 14 15 14 14 13 12 11